Year,Month,Day,Hour,Minute,Value (Times are PST for temperature in C)
2012,02,02,10,56,6.30
2012,02,02,10,57,6.30
2012,02,02,10,58,6.30
2012,02,02,10,59,6.30
2012,02,02,11,00,6.30
2012,02,02,11,01,6.30
2012,02,02,11,02,6.20
2012,02,02,11,03,6.20
2012,02,02,11,04,6.20
2012,02,02,11,05,6.20
2012,02,02,11,06,6.20
2012,02,02,11,07,6.20
2012,02,02,11,08,6.20
2012,02,02,11,09,6.30
2012,02,02,11,10,6.30
2012,02,02,11,11,6.30
2012,02,02,11,12,6.20
2012,02,02,11,13,6.20
2012,02,02,11,14,6.20
2012,02,02,11,15,6.20
2012,02,02,11,16,6.20
2012,02,02,11,17,6.20
2012,02,02,11,18,6.20
2012,02,02,11,19,6.30
2012,02,02,11,20,6.30
2012,02,02,11,21,6.30
2012,02,02,11,22,6.40
2012,02,02,11,23,6.40
2012,02,02,11,24,6.30
2012,02,02,11,25,6.30
2012,02,02,11,26,6.30
2012,02,02,11,27,6.30
2012,02,02,11,28,6.20
2012,02,02,11,29,6.20
2012,02,02,11,30,6.20
2012,02,02,11,31,6.20
2012,02,02,11,32,6.20
2012,02,02,11,33,6.20
2012,02,02,11,34,6.20
2012,02,02,11,35,6.20
2012,02,02,11,36,6.20
2012,02,02,11,37,6.30
2012,02,02,11,38,6.30
2012,02,02,11,39,6.20
2012,02,02,11,40,6.20
2012,02,02,11,41,6.30
2012,02,02,11,42,6.30
2012,02,02,11,43,6.30
2012,02,02,11,44,6.30
2012,02,02,11,45,6.40
2012,02,02,11,46,6.40
2012,02,02,11,47,6.40
2012,02,02,11,48,6.40
2012,02,02,11,49,6.50
2012,02,02,11,50,6.50
2012,02,02,11,51,6.50
2012,02,02,11,52,6.50
2012,02,02,11,53,6.40
2012,02,02,11,54,6.50
2012,02,02,11,55,6.60
2012,02,02,11,56,6.70
2012,02,02,11,57,6.70
2012,02,02,11,58,6.70
2012,02,02,11,59,6.70
2012,02,02,12,00,6.70
2012,02,02,12,01,6.60
2012,02,02,12,02,6.60
2012,02,02,12,03,6.40
2012,02,02,12,04,6.40
2012,02,02,12,05,6.40
2012,02,02,12,06,6.40
2012,02,02,12,07,6.50
2012,02,02,12,08,6.60
2012,02,02,12,09,6.60
2012,02,02,12,10,6.60
2012,02,02,12,11,6.60
2012,02,02,12,12,6.60
2012,02,02,12,13,6.60
2012,02,02,12,14,6.60
2012,02,02,12,15,6.60
2012,02,02,12,16,6.70
2012,02,02,12,17,6.70
2012,02,02,12,18,6.70
2012,02,02,12,19,6.80
2012,02,02,12,20,6.80
2012,02,02,12,21,6.80
2012,02,02,12,22,6.80
2012,02,02,12,23,6.80
2012,02,02,12,24,6.80
2012,02,02,12,25,6.80
2012,02,02,12,26,6.80
2012,02,02,12,27,6.80
2012,02,02,12,28,6.80
2012,02,02,12,29,6.80
2012,02,02,12,30,6.80
2012,02,02,12,31,6.90
2012,02,02,12,32,7.00
2012,02,02,12,33,7.00
2012,02,02,12,34,7.10
2012,02,02,12,35,7.10
2012,02,02,12,36,7.10
2012,02,02,12,37,7.10
2012,02,02,12,38,7.20
2012,02,02,12,39,7.20
2012,02,02,12,40,7.30
2012,02,02,12,41,7.30
2012,02,02,12,42,7.30
2012,02,02,12,43,7.30
2012,02,02,12,44,7.30
2012,02,02,12,45,7.30
2012,02,02,12,46,7.20
2012,02,02,12,47,7.20
2012,02,02,12,48,7.20
2012,02,02,12,49,7.20
2012,02,02,12,50,7.20
2012,02,02,12,51,7.20
2012,02,02,12,52,7.20
2012,02,02,12,53,7.20
2012,02,02,12,54,7.20
2012,02,02,12,55,7.20
2012,02,02,12,56,7.20
2012,02,02,12,57,7.20
2012,02,02,12,58,7.20
2012,02,02,12,59,7.20
2012,02,02,13,00,7.20
2012,02,02,13,01,7.20
2012,02,02,13,02,7.10
2012,02,02,13,03,7.10
2012,02,02,13,04,7.10
2012,02,02,13,05,7.10
2012,02,02,13,06,7.10
2012,02,02,13,07,7.10
2012,02,02,13,08,7.10
2012,02,02,13,09,7.10
2012,02,02,13,10,7.10
2012,02,02,13,11,7.20
2012,02,02,13,12,7.20
2012,02,02,13,13,7.30
2012,02,02,13,14,7.30
2012,02,02,13,15,7.30
2012,02,02,13,16,7.30
2012,02,02,13,17,7.30
2012,02,02,13,18,7.40
2012,02,02,13,19,7.40
2012,02,02,13,20,7.40
2012,02,02,13,21,7.50
2012,02,02,13,22,7.50
2012,02,02,13,23,7.50
2012,02,02,13,24,7.40
2012,02,02,13,25,7.30
2012,02,02,13,26,7.30
2012,02,02,13,27,7.30
2012,02,02,13,28,7.30
2012,02,02,13,29,7.30
2012,02,02,13,30,7.30
2012,02,02,13,31,7.30
2012,02,02,13,32,7.30
2012,02,02,13,33,7.30
2012,02,02,13,34,7.30
2012,02,02,13,35,7.30
2012,02,02,13,36,7.30
2012,02,02,13,37,7.30
2012,02,02,13,38,7.30
2012,02,02,13,39,7.30
2012,02,02,13,40,7.30
2012,02,02,13,41,7.30
2012,02,02,13,42,7.30
2012,02,02,13,43,7.30
2012,02,02,13,44,7.30
2012,02,02,13,45,7.30
2012,02,02,13,46,7.30
2012,02,02,13,47,7.30
2012,02,02,13,48,7.30
2012,02,02,13,49,7.30
2012,02,02,13,50,7.30
2012,02,02,13,51,7.30
2012,02,02,13,52,7.30
2012,02,02,13,53,7.30
2012,02,02,13,54,7.30
2012,02,02,13,55,7.30
2012,02,02,13,56,7.30
2012,02,02,13,57,7.40
2012,02,02,13,58,7.40
2012,02,02,13,59,7.40
2012,02,02,14,00,7.40
2012,02,02,14,01,7.40
2012,02,02,14,02,7.30
2012,02,02,14,03,7.30
2012,02,02,14,04,7.40
2012,02,02,14,05,7.40
2012,02,02,14,06,7.50
2012,02,02,14,07,7.60
2012,02,02,14,08,7.60
2012,02,02,14,09,7.70
2012,02,02,14,10,7.70
2012,02,02,14,11,7.70
2012,02,02,14,12,7.80
2012,02,02,14,13,7.80
2012,02,02,14,14,7.80
2012,02,02,14,15,7.80
2012,02,02,14,16,7.80
2012,02,02,14,17,7.80
2012,02,02,14,18,7.80
2012,02,02,14,19,7.80
2012,02,02,14,20,7.80
2012,02,02,14,21,7.80
2012,02,02,14,22,7.80
2012,02,02,14,23,7.80
2012,02,02,14,24,7.80
2012,02,02,14,25,7.80
2012,02,02,14,26,7.80
2012,02,02,14,27,7.80
2012,02,02,14,28,7.80
2012,02,02,14,29,7.80
2012,02,02,14,30,7.90
2012,02,02,14,31,8.00
2012,02,02,14,32,8.00
2012,02,02,14,33,8.10
2012,02,02,14,34,8.10
2012,02,02,14,35,8.10
2012,02,02,14,36,8.10
2012,02,02,14,37,8.20
2012,02,02,14,38,8.20
2012,02,02,14,39,8.20
2012,02,02,14,40,8.10
2012,02,02,14,41,8.10
2012,02,02,14,42,8.20
2012,02,02,14,43,8.20
2012,02,02,14,44,8.20
2012,02,02,14,45,8.30
2012,02,02,14,46,8.30
2012,02,02,14,47,8.20
2012,02,02,14,48,8.20
2012,02,02,14,49,8.10
2012,02,02,14,50,8.10
2012,02,02,14,51,8.10
2012,02,02,14,52,8.20
2012,02,02,14,53,8.20
2012,02,02,14,54,8.20
2012,02,02,14,55,8.20
2012,02,02,14,56,8.20
2012,02,02,14,57,8.20
2012,02,02,14,58,8.20
2012,02,02,14,59,8.20
2012,02,02,15,00,8.20
2012,02,02,15,01,8.30
2012,02,02,15,02,8.30
2012,02,02,15,03,8.30
2012,02,02,15,04,8.30
2012,02,02,15,05,8.30
2012,02,02,15,06,8.30
2012,02,02,15,07,8.30
2012,02,02,15,08,8.30
2012,02,02,15,09,8.30
2012,02,02,15,10,8.20
2012,02,02,15,11,8.20
2012,02,02,15,12,8.10
2012,02,02,15,13,8.10
2012,02,02,15,14,8.10
2012,02,02,15,15,8.10
2012,02,02,15,16,8.10
2012,02,02,15,17,8.10
2012,02,02,15,18,8.10
2012,02,02,15,19,8.20
2012,02,02,15,20,8.30
2012,02,02,15,21,8.30
2012,02,02,15,22,8.30
2012,02,02,15,23,8.30
2012,02,02,15,24,8.30
2012,02,02,15,25,8.20
2012,02,02,15,26,8.20
2012,02,02,15,27,8.20
2012,02,02,15,28,8.10
2012,02,02,15,29,8.00
2012,02,02,15,30,8.00
2012,02,02,15,31,8.00
2012,02,02,15,32,8.00
2012,02,02,15,33,7.90
2012,02,02,15,34,7.90
2012,02,02,15,35,8.00
2012,02,02,15,36,8.00
2012,02,02,15,37,8.00
2012,02,02,15,38,8.00
2012,02,02,15,39,8.00
2012,02,02,15,40,8.00
2012,02,02,15,41,8.00
2012,02,02,15,42,8.00
2012,02,02,15,43,8.00
2012,02,02,15,44,8.10
2012,02,02,15,45,8.10
2012,02,02,15,46,8.00
2012,02,02,15,47,8.00
2012,02,02,15,48,8.00
2012,02,02,15,49,8.00
2012,02,02,15,50,8.00
2012,02,02,15,51,8.00
2012,02,02,15,52,8.00
2012,02,02,15,53,8.00
2012,02,02,15,54,8.00
2012,02,02,15,55,8.00
2012,02,02,15,56,8.00
2012,02,02,15,57,8.00
2012,02,02,15,58,7.90
2012,02,02,15,59,7.90
2012,02,02,16,00,7.90
2012,02,02,16,01,7.90
2012,02,02,16,02,7.90
2012,02,02,16,03,7.90
2012,02,02,16,04,7.90
2012,02,02,16,05,7.80
2012,02,02,16,06,7.80
2012,02,02,16,07,7.80
2012,02,02,16,08,7.70
2012,02,02,16,09,7.80
2012,02,02,16,10,7.70
2012,02,02,16,11,7.70
2012,02,02,16,12,7.70
2012,02,02,16,13,7.70
2012,02,02,16,14,7.70
2012,02,02,16,15,7.60
2012,02,02,16,16,7.60
2012,02,02,16,17,7.50
2012,02,02,16,18,7.50
2012,02,02,16,19,7.50
2012,02,02,16,20,7.50
2012,02,02,16,21,7.50
2012,02,02,16,22,7.50
2012,02,02,16,23,7.50
2012,02,02,16,24,7.50
2012,02,02,16,25,7.50
2012,02,02,16,26,7.50
2012,02,02,16,27,7.50
